This is the latest recevied weather packets stored in our database for station/object OH2EGI-2. If no packets are shown the sender has not sent any weather packets the latest 10 day(s).
| Time | Temp. | Humidity | Pressure | Rain* | Wind** | Luminosity | Snow |
|---|---|---|---|---|---|---|---|
| 1777446721 | 10.56° C | 35% | 1016.8 hPa | 0 mm | - | - | - |
| 1777446421 | 10° C | 36% | 1016.9 hPa | 0 mm | - | - | - |
| 1777446121 | 9.44° C | 37% | 1016.8 hPa | 0 mm | - | - | - |
| 1777445821 | 8.89° C | 38% | 1016.8 hPa | 0 mm | - | - | - |
| 1777445521 | 8.89° C | 38% | 1016.9 hPa | 0 mm | - | - | - |
| 1777445221 | 8.33° C | 40% | 1016.8 hPa | 0 mm | - | - | - |
| 1777444921 | 7.22° C | 41% | 1016.7 hPa | 0 mm | - | - | - |
| 1777444621 | 6.67° C | 42% | 1016.9 hPa | 0 mm | - | - | - |
| 1777444321 | 6.11° C | 43% | 1016.9 hPa | 0 mm | - | - | - |
| 1777444021 | 6.11° C | 42% | 1016.8 hPa | 0 mm | - | - | - |
| 1777443721 | 6.67° C | 42% | 1016.9 hPa | 0 mm | - | - | - |
| 1777443421 | 7.22° C | 41% | 1016.9 hPa | 0 mm | - | - | - |
| 1777443121 | 7.78° C | 41% | 1016.8 hPa | 0 mm | - | - | - |
| 1777442821 | 7.78° C | 42% | 1017 hPa | 0 mm | - | - | - |
| 1777442521 | 7.78° C | 43% | 1017 hPa | 0 mm | - | - | - |
| 1777442221 | 7.78° C | 46% | 1017 hPa | 0 mm | - | - | - |
| 1777441921 | 6.67° C | 48% | 1016.9 hPa | 0 mm | - | - | - |
| 1777441621 | 6.11° C | 48% | 1017 hPa | 0 mm | - | - | - |
| 1777441321 | 5.56° C | 49% | 1016.9 hPa | 0 mm | - | - | - |
| 1777441021 | 5.56° C | 49% | 1016.8 hPa | 0 mm | - | - | - |
| 1777440721 | 5° C | 50% | 1016.8 hPa | 0 mm | - | - | - |
| 1777440421 | 5° C | 51% | 1016.9 hPa | 0 mm | - | - | - |
| 1777440121 | 4.44° C | 51% | 1016.9 hPa | 0 mm | - | - | - |
| 1777439821 | 4.44° C | 52% | 1016.9 hPa | 0 mm | - | - | - |
| 1777439521 | 4.44° C | 53% | 1016.9 hPa | 0 mm | - | - | - |
* Rain latest hour (hover to see other rain measurements)
** Current wind speed in m/s (hover to see current wind gust speed)